Temp
69 69 69 69 69 69 68 68 66 67 67 67 66 65 68 67 59 59 62 61 71 71 72 71 71 72 72 72 72 72 72 72 72
68 67 67 67 67 67 67 66 65 65 65 65 65 65 67 60 58 58 59 60 71 72 72 72 71 70 71 71 72 72 73 73 72
66 66 65 65 65 65 65 64 64 64 64 64 64 64 67 63 58 59 58 67 71 70 71 69 70 70 70 70 71 70 71 71 71
65 65 64 64 64 64 64 64 64 64 64 64 64 64 67 57 57 61 58 68 69 69 69 68 69 69 70 70 70 70 70 70 70
65 63 63 63 64 64 64 64 65 66 66 66 66 67 66 56 56 56 58 66 68 69 68 67 68 69 69 70 70 69 69 69 69
57 61 62 63 63 64 65 65 66 67 66 67 66 66 55 56 54 53 63 65 67 68 68 68 68 68 68 69 68 69 68 68 69
60 60 61 63 65 66 66 67 66 63 55 54 61 54 55 54 53 53 62 63 64 65 66 66 66 67 68 68 68 68 67 68 68
54 52 53 53 61 54 57 55 55 54 54 54 54 54 53 51 52 57 61 62 63 64 64 65 65 66 66 67 67 66 66 66 66
52 52 52 51 52 52 51 51 54 54 56 55 55 54 52 52 52 54 61 62 62 62 63 64 65 65 66 65 65 65 65 66 66
52 52 52 51 51 51 50 51 52 53 55 55 55 54 53 53 52 50 62 62 62 62 62 63 64 64 64 65 65 64 64 65 65
52 52 52 51 50 51 51 50 51 52 53 54 55 54 53 53 52 51 51 62 62 62 62 62 62 63 63 64 64 64 64 64 64
53 51 51 50 51 52 51 52 52 51 54 52 53 54 53 53 53 52 51 52 60 61 62 62 62 62 63 63 64 64 63 63 63
52 51 51 51 50 50 50 49 49 49 49 49 51 51 52 53 53 52 51 50 52 56 61 62 62 62 63 63 63 63 63 63 63
52 51 51 52 50 49 50 49 48 47 47 51 50 50 50 50 55 52 52 51 51 50 58 61 61 62 62 62 62 62 62 62 62
52 51 51 51 49 49 48 47 48 47 47 54 53 49 50 50 49 50 54 51 51 50 51 49 51 60 61 61 61 62 62 62 61
51 50 51 50 49 48 49 47 46 46 47 45 45 47 50 49 49 49 48 50 51 51 50 49 49 50 60 59 60 60 60 61 60
53 50 50 50 48 49 48 47 44 45 46 42 40 39 44 47 49 48 50 48 49 50 52 51 50 49 48 53 57 57 58 59 58
52 51 50 50 49 47 47 47 46 42 45 46 42 34 35 39 45 46 46 47 46 47 49 51 51 50 47 49 50 55 57 57 57
53 52 52 50 49 48 47 51 46 45 42 44 50 45 43 36 35 43 45 46 48 47 46 47 50 48 46 52 54 56 56 56 56
54 53 52 50 50 50 49 48 47 45 43 42 43 42 42 42 38 36 38 43 46 46 46 46 45 47 47 45 49 55 55 55 56
MSLP
1026.56 1026.62 1026.30 1026.20 1026.11 1026.03 1025.89 1025.81 1025.89 1025.67 1025.43 1025.32 1025.39 1025.31 1024.77 1024.64 1024.52 1024.29 1024.32 1023.97 1023.08 1022.78 1022.55 1022.57 1022.44 1022.07 1021.87 1021.67 1021.54 1021.33 1021.15 1021.03 1020.85
1026.90 1027.00 1026.93 1026.81 1026.69 1026.50 1026.37 1026.39 1026.36 1026.18 1025.96 1025.83 1025.71 1025.53 1025.07 1025.04 1024.83 1024.73 1024.58 1024.03 1023.24 1022.95 1022.79 1022.60 1022.60 1022.45 1022.14 1022.01 1021.71 1021.54 1021.27 1021.18 1021.16
1027.41 1027.47 1027.46 1027.34 1027.15 1027.04 1026.93 1026.85 1026.68 1026.51 1026.35 1026.17 1026.03 1025.92 1025.32 1025.26 1025.05 1025.18 1024.98 1024.06 1023.41 1023.33 1023.15 1023.22 1022.90 1022.71 1022.50 1022.32 1022.13 1021.98 1021.82 1021.55 1021.40
1027.64 1027.64 1027.61 1027.51 1027.41 1027.34 1027.37 1027.26 1027.03 1026.76 1026.60 1026.39 1026.20 1025.98 1025.49 1025.56 1025.55 1025.53 1025.39 1024.37 1024.00 1023.77 1023.73 1023.55 1023.35 1023.10 1022.83 1022.58 1022.57 1022.30 1022.15 1021.83 1021.60
1027.83 1028.00 1027.85 1027.74 1027.62 1027.54 1027.40 1027.26 1026.87 1026.47 1026.38 1026.23 1025.97 1025.74 1025.75 1025.77 1025.81 1025.99 1025.63 1024.89 1024.33 1024.04 1024.02 1024.01 1023.75 1023.43 1023.25 1022.85 1022.54 1022.58 1022.27 1022.08 1021.85
1028.01 1028.06 1028.05 1027.90 1027.75 1027.48 1027.26 1027.07 1026.74 1026.55 1026.44 1026.23 1026.04 1025.99 1026.07 1025.93 1026.23 1026.22 1025.91 1025.38 1024.84 1024.44 1024.25 1024.08 1023.85 1023.60 1023.35 1023.11 1023.02 1022.68 1022.63 1022.33 1021.95
1027.68 1027.84 1027.91 1027.80 1027.56 1027.24 1027.07 1026.88 1026.90 1026.75 1026.78 1026.65 1026.34 1026.33 1026.32 1026.28 1026.55 1026.41 1026.28 1025.94 1025.41 1025.11 1024.80 1024.62 1024.24 1023.90 1023.52 1023.21 1023.05 1022.83 1022.70 1022.36 1022.16
1027.67 1027.94 1027.82 1027.77 1027.58 1027.62 1027.39 1027.25 1027.08 1026.82 1026.67 1026.68 1026.58 1026.43 1026.60 1026.65 1026.86 1026.65 1026.54 1026.35 1025.89 1025.45 1025.06 1024.79 1024.42 1024.01 1023.79 1023.48 1023.36 1023.12 1022.93 1022.59 1022.46
1027.76 1027.88 1027.80 1027.85 1027.80 1027.70 1027.56 1027.42 1027.18 1026.87 1026.55 1026.56 1026.60 1026.51 1026.71 1026.74 1026.77 1026.63 1026.54 1026.33 1026.16 1025.76 1025.37 1024.94 1024.53 1024.34 1023.95 1023.74 1023.64 1023.40 1023.15 1022.79 1022.41
1027.66 1027.69 1027.76 1027.76 1027.73 1027.76 1027.64 1027.40 1027.25 1026.97 1026.65 1026.51 1026.63 1026.70 1026.76 1026.68 1026.78 1026.78 1026.34 1026.21 1026.03 1025.75 1025.58 1025.22 1024.91 1024.65 1024.23 1023.85 1023.71 1023.58 1023.38 1022.91 1022.47
1027.70 1027.71 1027.71 1027.73 1027.68 1027.65 1027.52 1027.38 1027.16 1027.07 1026.70 1026.54 1026.43 1026.65 1026.72 1026.56 1026.65 1026.68 1026.50 1026.26 1026.05 1025.69 1025.51 1025.43 1025.14 1024.88 1024.47 1024.00 1023.71 1023.62 1023.44 1023.08 1022.59
1027.62 1027.76 1027.77 1027.78 1027.70 1027.53 1027.37 1027.21 1027.09 1027.09 1026.70 1026.67 1026.42 1026.35 1026.50 1026.55 1026.50 1026.54 1026.59 1026.49 1026.17 1025.81 1025.56 1025.46 1025.22 1024.85 1024.43 1024.17 1023.82 1023.46 1023.37 1022.96 1022.68
1027.59 1027.66 1027.72 1027.68 1027.75 1027.66 1027.63 1027.49 1027.45 1027.42 1027.14 1026.99 1026.66 1026.45 1026.50 1026.51 1026.42 1026.42 1026.40 1026.34 1026.23 1026.11 1025.80 1025.52 1025.20 1024.67 1024.43 1024.18 1023.84 1023.56 1023.14 1022.89 1022.70
1027.34 1027.41 1027.39 1027.40 1027.67 1027.64 1027.53 1027.59 1027.48 1027.43 1027.23 1027.00 1026.64 1026.33 1026.39 1026.40 1026.32 1026.32 1026.28 1026.28 1026.22 1026.20 1025.85 1025.49 1025.16 1024.74 1024.45 1024.27 1023.92 1023.53 1023.15 1022.82 1022.60
1026.94 1027.06 1027.10 1027.19 1027.49 1027.52 1027.48 1027.59 1027.46 1027.31 1027.20 1027.00 1026.63 1026.33 1026.04 1026.18 1026.38 1026.23 1026.12 1026.12 1026.06 1025.96 1025.77 1025.55 1025.32 1024.91 1024.66 1024.43 1024.17 1023.61 1023.21 1022.83 1022.53
1026.84 1027.05 1026.96 1026.96 1027.24 1027.31 1027.22 1027.49 1027.52 1027.40 1027.12 1027.25 1026.89 1026.05 1025.92 1026.13 1026.04 1026.04 1026.00 1026.03 1025.83 1025.65 1025.44 1025.39 1025.23 1024.99 1024.64 1024.52 1024.13 1023.83 1023.48 1022.81 1022.62
1026.44 1026.74 1026.88 1026.84 1027.06 1027.05 1027.21 1027.34 1027.61 1027.52 1027.26 1027.53 1027.52 1027.27 1026.80 1026.41 1026.03 1025.79 1025.83 1025.94 1025.77 1025.51 1025.28 1025.22 1025.16 1024.90 1024.73 1024.44 1024.31 1024.09 1023.48 1022.84 1022.52
1025.85 1026.17 1026.41 1026.51 1026.63 1026.95 1027.08 1027.16 1027.40 1027.73 1027.43 1027.27 1027.58 1027.88 1027.79 1027.16 1026.31 1026.13 1026.07 1026.08 1025.89 1025.47 1025.09 1024.92 1024.82 1024.71 1024.78 1024.74 1024.50 1024.04 1023.29 1022.92 1022.46
1025.47 1025.70 1025.89 1026.10 1026.30 1026.60 1026.67 1026.54 1027.00 1027.34 1027.63 1027.32 1027.03 1027.17 1027.53 1027.74 1027.69 1026.40 1026.08 1026.05 1025.92 1025.47 1025.09 1024.76 1024.49 1024.62 1024.60 1024.48 1024.30 1023.70 1023.18 1022.76 1022.40
1024.82 1025.17 1025.56 1025.82 1025.89 1025.96 1026.13 1026.23 1026.50 1026.76 1027.16 1027.27 1027.19 1027.24 1027.24 1027.21 1027.41 1026.95 1026.51 1026.10 1025.74 1025.29 1024.87 1024.45 1024.38 1024.24 1024.26 1024.23 1024.00 1023.55 1023.22 1022.70 1022.09
Wind_Speed
14 13 14 14 14 14 14 16 15 16 16 17 17 17 15 13 7 7 11 7 16 17 18 18 18 18 16 17 16 17 17 18 18
13 14 14 14 13 13 14 14 15 15 16 16 16 16 16 7 6 6 7 7 14 15 14 15 15 16 16 17 17 16 16 16 17
11 12 12 13 13 12 13 13 13 14 15 16 15 13 14 9 6 9 8 15 17 18 16 17 16 16 16 16 17 19 17 17 18
10 11 12 13 13 13 13 12 12 11 13 15 14 11 14 6 5 10 6 18 16 15 16 17 17 18 17 16 16 17 18 18 17
8 10 10 11 12 12 12 12 12 8 9 12 12 13 10 5 6 6 6 17 17 16 14 16 16 15 15 16 16 18 18 17 18
8 5 6 8 8 9 9 10 11 12 12 12 12 10 3 4 5 3 15 16 16 15 16 16 15 14 15 15 16 15 17 17 17
2 4 2 2 8 9 10 11 11 7 3 3 6 3 5 4 4 3 15 15 16 16 16 16 16 15 16 16 16 15 18 19 18
1 2 2 2 6 3 5 5 3 4 3 3 3 4 4 3 4 6 13 14 15 15 15 14 15 15 16 15 18 18 17 17 18
2 1 1 2 2 3 3 2 5 6 5 5 5 4 3 3 2 4 9 12 12 14 15 16 16 16 16 16 17 17 18 17 18
2 1 1 1 2 3 3 3 4 4 5 2 4 4 3 3 2 2 10 11 11 13 13 16 16 16 16 16 16 18 19 19 18
2 1 0 2 2 3 3 2 3 4 3 4 3 1 1 2 3 2 4 12 13 13 12 14 15 14 16 16 17 18 19 19 19
1 2 1 2 3 4 4 4 4 4 4 5 0 3 2 2 3 3 2 4 10 14 13 14 14 13 15 16 18 17 16 20 19
3 2 1 2 3 2 2 3 3 4 3 3 4 2 1 3 3 1 1 1 2 6 13 14 14 12 15 16 16 17 19 18 19
4 3 2 3 2 2 1 2 2 3 3 4 4 2 1 0 3 2 2 2 2 2 8 12 13 14 15 16 17 18 19 20 19
4 3 4 3 2 3 1 1 3 2 2 4 6 4 4 3 4 4 1 2 3 4 5 4 4 12 15 16 16 18 20 20 19
5 3 4 4 4 3 1 2 2 3 2 3 5 4 5 4 3 2 2 3 3 5 4 3 3 3 12 12 17 19 20 20 21
6 6 5 5 3 3 4 3 1 3 1 1 1 4 5 4 3 0 1 4 4 5 4 4 5 4 3 9 16 20 22 22 23
7 6 6 5 4 4 3 3 3 2 3 2 3 3 2 4 2 3 2 6 4 5 3 4 4 4 4 6 9 19 21 23 24
7 7 6 6 4 5 5 4 4 3 4 3 3 3 4 2 4 3 3 4 5 6 4 3 3 4 3 8 14 19 22 22 22
8 7 7 6 5 5 6 5 5 4 4 3 2 1 2 4 4 6 3 3 3 5 4 4 2 3 2 3 7 19 19 21 20
Wind_Direction
43 40 37 38 32 31 29 28 26 24 21 24 24 26 15 41 9 21 36 348 9 26 23 23 18 14 16 13 18 17 19 18 14
43 42 38 36 32 27 31 28 28 22 21 21 23 25 14 42 8 25 25 332 20 21 18 18 23 13 15 18 12 9 8 5 9
46 49 42 42 43 37 36 32 31 27 24 22 27 23 26 16 2 42 6 3 15 24 27 18 16 14 15 17 13 14 6 5 1
43 42 39 36 41 44 42 36 35 32 28 29 24 12 28 25 26 43 348 3 26 20 23 22 12 12 13 9 11 5 0 356 353
63 37 21 31 31 37 36 29 25 43 40 30 18 35 18 35 43 40 356 7 10 12 18 18 4 7 2 355 356 2 356 355 352
103 63 34 23 17 25 25 23 23 33 20 23 28 25 1 27 68 39 16 10 8 10 10 8 5 0 2 356 0 353 355 349 342
105 158 158 2 8 6 18 21 18 30 358 1 29 17 26 20 88 34 19 13 13 10 7 6 4 1 359 357 356 351 359 348 349
140 158 35 352 12 356 5 4 344 338 358 19 14 43 38 21 78 46 26 14 14 11 12 6 5 2 2 357 359 356 352 350 351
20 71 326 42 334 16 358 354 331 336 352 59 12 40 49 43 35 9 31 17 13 9 8 6 4 2 0 3 357 356 347 352 346
312 60 28 11 30 12 337 350 322 326 327 67 55 10 48 44 47 13 9 17 13 12 9 5 1 360 358 355 350 354 349 345 343
336 9 6 28 50 317 292 284 333 311 329 335 131 27 28 29 73 53 356 13 5 5 8 1 358 357 355 352 350 349 347 344 339
6 294 356 54 332 331 345 346 346 338 334 340 15 140 319 339 48 82 29 31 7 0 356 354 351 353 350 347 348 345 342 341 340
278 271 289 115 284 292 338 319 335 329 347 333 310 62 342 5 337 71 49 50 14 344 347 349 345 348 343 343 342 342 339 339 336
203 239 230 147 280 289 266 335 351 332 330 315 292 213 155 14 330 323 1 346 10 323 317 349 350 343 344 343 342 343 334 339 335
200 234 220 177 257 269 52 347 313 269 279 321 301 251 190 189 234 268 350 346 10 341 324 332 318 342 343 344 344 340 342 336 335
197 231 241 193 206 236 175 245 308 315 336 352 335 308 197 192 248 137 40 338 306 303 309 316 312 320 334 347 341 345 338 336 336
192 205 231 232 213 226 225 198 293 296 13 142 297 339 345 351 295 285 218 298 279 283 292 322 314 330 341 358 353 342 329 336 331
199 211 209 226 203 213 237 196 181 237 311 218 147 10 287 343 312 1 42 349 319 302 275 295 326 349 35 6 352 330 332 332 329
201 204 215 224 214 204 219 204 188 178 236 316 195 184 179 211 317 322 336 298 301 312 295 287 280 76 19 343 330 324 335 332 329
201 200 209 221 218 218 209 221 189 196 199 210 264 267 259 234 225 282 291 312 315 297 305 276 111 76 357 313 305 329 327 336 331